Volver al catálogo

STARLINK-30240

ActivoComunicacionesVLEO
NORAD 57404·PAYLOAD·🇺🇸 United States

Lanzado Jul 20, 2023 desde Vandenberg Space Force Base

Loading…

Próximos Pases (próximas 24 horas)

TLE

ActualizadoSource: CelesTrak SupGP

Época: Sep 15, 2026, 01:12 UTC

1 57404C 23102A   26258.05048611  .00004375  00000+0  15844-3 0  2587
2 57404  43.0015 259.2000 0001754 261.9731 324.0340 15.27577579    11

Sigue STARLINK-30240 en tiempo real con AllMySat

Download on the App Store